[[{"header":{"parameterUnit":"m.s-1","parameterCategory":1,"la1":30.2991,"la2":30.254,"lo1":-89.0895,"lo2":-89.0444,"dy":0.0017,"dx":0.0017,"nx":28,"ny":28,"refTime":"2025-09-04T21:00:00:Z","depth":0,"parameterNumber":2,"parameterNumberName":"U-component_of_WINDS"},"data":[0,0,0,0,0,0,0,0,0,0,0,0,0,0,0,0,0,0,0,0,0,0,0,0,0,0,0,0,0,0,0,0,0,0,0,0,0,0,0,0,0,0,0,0,0,0,0,0,0,0,0,0,0,0,0,0,0,0,0.4604,0.4604,0,0.4538,0.4537,0.4536,0.4506,0.4507,0.4507,0.4507,0.4435,0.4433,0.4431,0,0,0,0,0,0,0,0,0,0,0,0,0,0.4702,0.47,0.4604,0.4604,0.4603,0.4538,0.4537,0.4536,0.4506,0.4507,0.4507,0.4507,0.4435,0.4433,0.4431,0,0,0,0,0,0,0,0,0,0,0,0,0,0.465,0.47,0.4605,0.458,0.4578,0.4538,0.4537,0.4536,0.4506,0.4507,0.4507,0.4507,0.4436,0.4433,0.443,0.4409,0,0,0.4421,0.442,0,0,0,0,0,0,0,0,0.4653,0.4646,0.4585,0.4582,0.4579,0.4531,0.4545,0.4493,0.4506,0.4533,0.4507,0.4507,0.4466,0.4461,0.4448,0.4405,0.4402,0.4421,0.4419,0.4418,0.4417,0,0,0,0,0,0,0,0.4657,0.4649,0.4578,0.4584,0.458,0.4571,0.4564,0.4535,0.45,0.4531,0.4529,0.4521,0.4465,0.4451,0.4446,0.4401,0.4421,0.4418,0.4416,0.4415,0.4335,0.4335,0,0,0,0,0,0,0.4665,0.4652,0.458,0.4576,0.4617,0.4569,0.4561,0.4546,0.45,0.4493,0.4521,0.452,0.4456,0.4449,0.4443,0.4413,0.4418,0.4415,0.4413,0.4335,0.4335,0.4335,0,0,0,0,0,0,0.4667,0.4659,0.4583,0.4613,0.4603,0.4568,0.455,0.4544,0.4531,0.4493,0.4486,0.4514,0.4456,0.4447,0.4417,0.4411,0.4413,0.4411,0.4336,0.4335,0.4335,0.4355,0,0,0,0,0,0,0.467,0.466,0.4652,0.4614,0.4602,0.4559,0.455,0.4543,0.4526,0.4524,0.4484,0.4477,0.4455,0.4422,0.4414,0.4407,0.4408,0.4336,0.4336,0.4335,0.4355,0.4355,0.4356,0,0,0,0,0,0.4673,0.466,0.4652,0.4643,0.4592,0.4559,0.4552,0.4528,0.4526,0.4517,0.4492,0.4479,0.4413,0.4419,0.441,0.4401,0.4337,0.4336,0.4335,0.4354,0.4355,0.4356,0,0,0,0,0,0,0.4698,0.4655,0.4645,0.4619,0.4593,0.4554,0.4543,0.453,0.4503,0.4502,0.4472,0.4463,0.4435,0.4415,0.4423,0.4377,0.4373,0.4371,0.4391,0.4391,0.4392,0.4397,0.4406,0,0,0,0,0,0.4701,0.4679,0.4642,0.4622,0.461,0.4579,0.4563,0.4547,0.4518,0.4507,0.448,0.4451,0.4424,0.4407,0.438,0.4352,0.4341,0.4341,0.4342,0.4342,0.434,0.4322,0.4321,0.4332,0.4332,0.4332,0,0,0.4705,0.4679,0.4667,0.4627,0.4605,0.4581,0.457,0.4546,0.4527,0.4503,0.4473,0.4452,0.4418,0.4388,0.4374,0.4371,0.4335,0.4341,0.4342,0.434,0.4321,0.432,0.4319,0.4332,0.4332,0.4332,0,0,0.4702,0.4681,0.4662,0.464,0.4606,0.4586,0.4581,0.4544,0.4529,0.4498,0.4479,0.4456,0.441,0.4386,0.4368,0.4354,0.434,0.4346,0.4348,0.4331,0.433,0.4329,0.4323,0.4321,0.4344,0.4344,0.4344,0,0.4712,0.4678,0.4653,0.463,0.4612,0.4589,0.4568,0.4548,0.4507,0.4494,0.4492,0.4433,0.4408,0.4372,0.4369,0.4355,0.4347,0.435,0.4332,0.4331,0.433,0.4323,0.4321,0.4345,0.4345,0.4345,0.4345,0,0.469,0.4667,0.4655,0.4617,0.4597,0.4575,0.4546,0.4529,0.4514,0.4493,0.4461,0.443,0.4396,0.4386,0.4371,0.4347,0.4346,0.4339,0.4334,0.433,0.4323,0.4321,0.4346,0.4346,0.4346,0.4346,0,0,0.4701,0.4649,0.4645,0.4627,0.4588,0.4568,0.4545,0.4512,0.4497,0.4469,0.4447,0.4408,0.4401,0.438,0.4362,0.4347,0.4335,0.434,0.4339,0.4339,0.4305,0.431,0.4308,0.4326,0.4325,0.4325,0.4307,0,0.4692,0.465,0.4626,0.4593,0.457,0.4547,0.4526,0.4499,0.4478,0.4454,0.443,0.4402,0.4395,0.4382,0.4366,0.434,0.4328,0.4341,0.4303,0.4302,0.4312,0.4305,0.431,0.4295,0.4305,0.4304,0.4304,0,0.4676,0.4649,0.4614,0.4576,0.4565,0.4547,0.4514,0.4492,0.4459,0.4445,0.4422,0.4403,0.4375,0.4373,0.4333,0.4343,0.4326,0.431,0.4309,0.4304,0.4302,0.4298,0.429,0.4287,0.43,0.43,0.43,0,0.4685,0.464,0.4613,0.4598,0.4554,0.4541,0.4522,0.449,0.4471,0.4442,0.4429,0.4397,0.4379,0.4353,0.4326,0.4327,0.4288,0.4284,0.4273,0.4274,0.4265,0.4266,0.4254,0.4256,0.4256,0.4257,0.4257,0,0.4677,0.4656,0.4617,0.46,0.4575,0.4547,0.4523,0.4501,0.4473,0.445,0.4428,0.4407,0.4373,0.4346,0.4325,0.4294,0.4286,0.4272,0.4266,0.4273,0.4275,0.4261,0.4261,0.4256,0.4256,0.4256,0.4256,0,0.4684,0.4657,0.4625,0.4586,0.4575,0.4559,0.4524,0.4505,0.4483,0.4454,0.4446,0.441,0.4378,0.4349,0.4306,0.4291,0.4259,0.4252,0.427,0.4267,0.4258,0.4258,0.4235,0.4229,0.4237,0.4237,0.4237,0,0.468,0.4663,0.4622,0.4605,0.4587,0.456,0.4541,0.4513,0.4493,0.4454,0.444,0.4407,0.4378,0.4327,0.4297,0.4263,0.4255,0.4249,0.425,0.4257,0.4253,0.4254,0.4251,0.4249,0.4249,0.4249,0.4249,0,0.4675,0.4662,0.4636,0.4604,0.4582,0.4556,0.4528,0.4516,0.4482,0.446,0.4428,0.4406,0.4362,0.4328,0.4291,0.4269,0.4252,0.4249,0.4245,0.4251,0.4262,0.4254,0.427,0.425,0.425,0.425,0.425,0.425,0.4675,0.4659,0.4627,0.4597,0.4574,0.4549,0.4529,0.4504,0.4477,0.4439,0.4424,0.439,0.4356,0.4305,0.4283,0.4255,0.4251,0.4245,0.4243,0.4242,0.4243,0.4267,0.4248,0.4248,0.4248,0.4248,0.4248,0,0.4668,0.4646,0.462,0.4582,0.4559,0.4547,0.4515,0.4496,0.4467,0.4437,0.441,0.4371,0.4338,0.4304,0.4268,0.4252,0.4244,0.4244,0.4244,0.4239,0.4249,0.4255,0.4251,0.4251,0.4251,0.4251,0.4251,0.4251,0.4662,0.4633,0.4616,0.4574,0.4551,0.4519,0.4502,0.4478,0.4454,0.4412,0.4384,0.4363,0.4331,0.4292,0.426,0.4251,0.4238,0.424,0.4229,0.4238,0.4238,0.4238,0.4245,0.4238,0.4238,0.4221,0.4221,0.4221]},{"header":{"parameterUnit":"m.s-1","parameterCategory":1,"la1":30.2991,"la2":30.254,"lo1":-89.0895,"lo2":-89.0444,"dy":0.0017,"dx":0.0017,"nx":28,"ny":28,"refTime":"2025-09-04T21:00:00:Z","depth":0,"parameterNumber":3,"parameterNumberName":"V-component_of_WINDS"},"data":[0,0,0,0,0,0,0,0,0,0,0,0,0,0,0,0,0,0,0,0,0,0,0,0,0,0,0,0,0,0,0,0,0,0,0,0,0,0,0,0,0,0,0,0,0,0,0,0,0,0,0,0,0,0,0,0,0,0,-0.1103,-0.1103,0,-0.1155,-0.1156,-0.1156,-0.1191,-0.1192,-0.1192,-0.1192,-0.1249,-0.1251,-0.1252,0,0,0,0,0,0,0,0,0,0,0,0,0,-0.1036,-0.1037,-0.1103,-0.1103,-0.1104,-0.1155,-0.1156,-0.1157,-0.1191,-0.1192,-0.1192,-0.1192,-0.1249,-0.125,-0.1252,0,0,0,0,0,0,0,0,0,0,0,0,0,-0.1075,-0.1038,-0.1102,-0.1127,-0.113,-0.1155,-0.1156,-0.1157,-0.1191,-0.1192,-0.1192,-0.1192,-0.1248,-0.125,-0.1252,-0.1257,0,0,-0.1258,-0.1259,0,0,0,0,0,0,0,0,-0.1072,-0.1077,-0.1123,-0.1126,-0.1129,-0.1167,-0.1153,-0.1191,-0.1191,-0.1168,-0.1192,-0.1192,-0.1222,-0.1226,-0.1235,-0.126,-0.1263,-0.1258,-0.126,-0.126,-0.1261,0,0,0,0,0,0,0,-0.107,-0.1075,-0.1124,-0.1124,-0.1127,-0.1137,-0.1143,-0.1161,-0.1193,-0.117,-0.1173,-0.1178,-0.1224,-0.1233,-0.1237,-0.1263,-0.1258,-0.126,-0.1261,-0.1262,-0.1297,-0.1297,0,0,0,0,0,0,-0.1063,-0.1073,-0.1122,-0.1125,-0.1101,-0.1138,-0.1145,-0.1154,-0.1192,-0.1198,-0.1178,-0.118,-0.123,-0.1234,-0.1239,-0.1249,-0.126,-0.1262,-0.1263,-0.1297,-0.1297,-0.1297,0,0,0,0,0,0,-0.1061,-0.1067,-0.112,-0.11,-0.1107,-0.1139,-0.115,-0.1155,-0.1165,-0.1198,-0.1205,-0.1182,-0.123,-0.1236,-0.1253,-0.1251,-0.1263,-0.1265,-0.1298,-0.1297,-0.1297,-0.1267,0,0,0,0,0,0,-0.1059,-0.1066,-0.1067,-0.1099,-0.1108,-0.1131,-0.115,-0.1156,-0.1168,-0.1171,-0.1204,-0.1209,-0.1231,-0.125,-0.1255,-0.1254,-0.1266,-0.1298,-0.1298,-0.1297,-0.1269,-0.1266,-0.1264,0,0,0,0,0,-0.1056,-0.1057,-0.1067,-0.1073,-0.111,-0.1131,-0.1136,-0.116,-0.1168,-0.117,-0.1192,-0.1208,-0.125,-0.1251,-0.1257,-0.1257,-0.1298,-0.1298,-0.1297,-0.127,-0.1267,-0.1264,0,0,0,0,0,0,-0.1025,-0.1062,-0.1073,-0.1084,-0.1104,-0.1137,-0.114,-0.1156,-0.1175,-0.1177,-0.1206,-0.1214,-0.1227,-0.1244,-0.1244,-0.1265,-0.1276,-0.1277,-0.1254,-0.1251,-0.1248,-0.1245,-0.1268,0,0,0,0,0,-0.1019,-0.1032,-0.1064,-0.107,-0.108,-0.1108,-0.1118,-0.1135,-0.1157,-0.1166,-0.1189,-0.1211,-0.123,-0.1241,-0.126,-0.1271,-0.128,-0.1274,-0.1272,-0.127,-0.127,-0.1279,-0.1277,-0.1295,-0.1295,-0.1295,0,0,-0.1007,-0.1029,-0.1035,-0.1065,-0.1082,-0.1096,-0.1115,-0.1129,-0.114,-0.1169,-0.1186,-0.1203,-0.123,-0.1244,-0.1252,-0.1259,-0.1267,-0.1269,-0.1267,-0.1269,-0.1278,-0.1277,-0.1275,-0.1295,-0.1295,-0.1295,0,0,-0.0993,-0.101,-0.1018,-0.1035,-0.1061,-0.108,-0.1082,-0.1113,-0.1126,-0.1143,-0.1165,-0.1179,-0.121,-0.1229,-0.1242,-0.1236,-0.1253,-0.1241,-0.1229,-0.1237,-0.1236,-0.1235,-0.1234,-0.1233,-0.1242,-0.1242,-0.1242,0,-0.0976,-0.0996,-0.1021,-0.1033,-0.1046,-0.1072,-0.1081,-0.1097,-0.1128,-0.1137,-0.1144,-0.1183,-0.1203,-0.1223,-0.1221,-0.1231,-0.1235,-0.1238,-0.1234,-0.1233,-0.1232,-0.1232,-0.1231,-0.124,-0.124,-0.124,-0.1241,0,-0.0974,-0.0988,-0.0992,-0.102,-0.1034,-0.1044,-0.1072,-0.1082,-0.1098,-0.1117,-0.1135,-0.116,-0.1184,-0.119,-0.1206,-0.1213,-0.1216,-0.1228,-0.124,-0.1229,-0.1229,-0.1229,-0.1238,-0.1238,-0.1239,-0.1239,0,0,-0.0941,-0.0984,-0.0985,-0.0998,-0.1029,-0.1041,-0.1054,-0.1077,-0.1087,-0.1108,-0.112,-0.1146,-0.1157,-0.1172,-0.119,-0.1197,-0.1193,-0.1209,-0.121,-0.1206,-0.1203,-0.1195,-0.1194,-0.1204,-0.1204,-0.1204,-0.1201,0,-0.0933,-0.0955,-0.0978,-0.0993,-0.1008,-0.1033,-0.1044,-0.1065,-0.1083,-0.1099,-0.112,-0.1138,-0.1151,-0.1161,-0.1169,-0.1191,-0.1193,-0.1192,-0.1217,-0.1218,-0.121,-0.1194,-0.1185,-0.1181,-0.1202,-0.1202,-0.1202,0,-0.0925,-0.0944,-0.0961,-0.0991,-0.0998,-0.1008,-0.1032,-0.1046,-0.1071,-0.1084,-0.1101,-0.112,-0.1137,-0.1147,-0.1171,-0.117,-0.1182,-0.1194,-0.1195,-0.1199,-0.1209,-0.1198,-0.118,-0.118,-0.1202,-0.1202,-0.1202,0,-0.0901,-0.0931,-0.0945,-0.0956,-0.0992,-0.0998,-0.1014,-0.1039,-0.1052,-0.1073,-0.1082,-0.1105,-0.1118,-0.1136,-0.1162,-0.1167,-0.1184,-0.1196,-0.1196,-0.1196,-0.1199,-0.1199,-0.1184,-0.1205,-0.1205,-0.1205,-0.1205,0,-0.0889,-0.0899,-0.0935,-0.0943,-0.0955,-0.0982,-0.0993,-0.1011,-0.1034,-0.1047,-0.1071,-0.1084,-0.1116,-0.1134,-0.1154,-0.1171,-0.1177,-0.1189,-0.1194,-0.1187,-0.1186,-0.1196,-0.1197,-0.1205,-0.1205,-0.1205,-0.1205,0,-0.0864,-0.0889,-0.0906,-0.0938,-0.0947,-0.0954,-0.0983,-0.0993,-0.1012,-0.103,-0.1035,-0.1067,-0.1088,-0.1115,-0.1146,-0.116,-0.1175,-0.1183,-0.1166,-0.117,-0.1169,-0.1169,-0.1161,-0.1162,-0.1181,-0.1181,-0.1181,0,-0.0856,-0.0863,-0.0897,-0.0907,-0.0921,-0.0938,-0.0951,-0.0978,-0.0991,-0.1021,-0.1028,-0.1051,-0.1071,-0.1105,-0.1131,-0.1155,-0.1164,-0.116,-0.1168,-0.1161,-0.1165,-0.1165,-0.1166,-0.1158,-0.1157,-0.1157,-0.1157,0,-0.0838,-0.085,-0.0867,-0.0889,-0.0904,-0.0923,-0.0943,-0.0951,-0.0982,-0.0996,-0.1018,-0.1033,-0.1064,-0.1087,-0.1115,-0.1132,-0.115,-0.1154,-0.1155,-0.1148,-0.1139,-0.1145,-0.1162,-0.1154,-0.1154,-0.1154,-0.1155,-0.1155,-0.0822,-0.083,-0.0855,-0.0874,-0.0892,-0.091,-0.0922,-0.0943,-0.0961,-0.0987,-0.1003,-0.1024,-0.1051,-0.1089,-0.1106,-0.1125,-0.1131,-0.1133,-0.1134,-0.1134,-0.1133,-0.1135,-0.113,-0.113,-0.113,-0.113,-0.113,0,-0.0806,-0.0823,-0.084,-0.0867,-0.0883,-0.0897,-0.0921,-0.0933,-0.0951,-0.0974,-0.0993,-0.1019,-0.1042,-0.107,-0.1095,-0.1105,-0.1114,-0.111,-0.111,-0.1115,-0.1125,-0.1121,-0.1103,-0.1103,-0.1103,-0.1103,-0.1103,-0.1103,-0.0799,-0.0815,-0.083,-0.0855,-0.0873,-0.0893,-0.0905,-0.0923,-0.0941,-0.0969,-0.0987,-0.1005,-0.1031,-0.1058,-0.1081,-0.1089,-0.1097,-0.1092,-0.1102,-0.1111,-0.1114,-0.1116,-0.1113,-0.1093,-0.1093,-0.1091,-0.1091,-0.1091]}]]